Location: Zagreb
(45.8000°N, 16.0000°E)
Time: 20:25:47
(UTC+01:00)

deb Explorer IX - Pass Details

Date: 05 October 2020
Orbit: 537 x 1106 km, 38.8° (Epoch: 30 October)

Event Time Altitude Azimuth Distance (km) Brightness Sun altitude
Rises 19:43:42 0° 267° (W) 3,107 ? -14.0°
Reaches altitude 10° 19:46:40 10° 252° (WSW) 2,082 ? -14.5°
Maximum altitude 19:50:19 22° 202° (SSW) 1,351 ? -15.2°
Enters shadow 19:53:18 12° 155° (SSE) 1,786 ? -15.7°
Drops below altitude 10° 19:53:38 10° 151° (SSE) 1,880 - -15.7°
Sets 19:56:11 0° 136° (SE) 2,723 - -16.2°
